Location: Fiddletown
(38.4917°N, 120.6633°W)
Time: 10:20:04
(UTC-07:00)

Envisat - Visible Passes

Search period start: 26 September 2016 00:00
Search period end: 06 October 2016 00:00
Orbit: 764 x 766 km, 98.3° (Epoch: 26 September)

Date Brightness Start Highest point End Pass type
(mag) Time Alt. Az. Time Alt. Az. Time Alt. Az.
26 Sep 4.4 20:33:30 22° NE 20:33:30 22° NE 20:36:19 10° NNE visible
26 Sep 5.1 22:13:43 23° NW 22:13:43 23° NW 22:15:52 10° NNW visible
27 Sep 5.0 19:56:31 10° NE 19:56:31 10° NE 19:57:11 10° NE visible
27 Sep 4.4 21:36:45 33° NNW 21:36:45 33° NNW 21:39:29 10° NNW visible
28 Sep 4.2 20:59:46 28° NNE 20:59:46 28° NNE 21:02:32 10° N visible
28 Sep 5.8 22:39:59 13° NW 22:39:59 13° NW 22:40:50 10° NW visible
29 Sep 4.7 20:22:48 17° NE 20:22:48 17° NE 20:24:55 10° NNE visible
29 Sep 5.1 22:03:01 23° NW 22:03:01 23° NW 22:05:00 10° NNW visible
30 Sep 4.5 21:26:02 28° N 21:26:02 28° N 21:28:26 10° N visible
01 Oct 4.5 20:49:04 23° NNE 20:49:04 23° NNE 20:51:20 10° N visible
01 Oct 5.7 22:29:17 14° NW 22:29:17 14° NW 22:30:10 10° NW visible
02 Oct 4.9 20:12:06 13° NE 20:12:06 13° NE 20:13:21 10° NNE visible
02 Oct 5.1 21:52:18 22° NNW 21:52:18 22° NNW 21:54:04 10° NNW visible
03 Oct 4.7 21:15:20 24° N 21:15:20 24° N 21:17:20 10° N visible
04 Oct 4.8 20:38:22 18° NNE 20:38:22 18° NNE 20:40:03 10° NNE visible
04 Oct 5.7 22:18:35 14° NW 22:18:35 14° NW 22:19:24 10° NNW visible
05 Oct 5.1 20:01:23 10° NE 20:01:23 10° NE 20:01:27 10° NE visible
05 Oct 5.1 21:41:36 20° NNW 21:41:36 20° NNW 21:43:05 10° NNW visible
